Bakersfield, CA

2:57 AM PDT on September 30, 2016 (GMT -0700)
Meadows

Weather History for KBFL - June, 2013

Change the Weather History Date:

Friday, June 14, 2013

  Actual Average Record
Temperature  
Mean Temperature 77 °F 77 °F  
Max Temperature 90 °F 91 °F 111 °F (1961)
Min Temperature 63 °F 64 °F 43 °F (1907)
Degree Days  
Heating Degree Days 0    
Month to date heating degree days 0  
Since 1 June heating degree days 0  
Since 1 July heating degree days 1829  
Cooling Degree Days 12    
Month to date cooling degree days 232  
Year to date cooling degree days 611  
Since 1 June cooling degree days 232  
Growing Degree Days 26 (Base 50)    
Moisture  
Dew Point 38 °F    
Average Humidity 28    
Maximum Humidity 40    
Minimum Humidity 16    
Precipitation  
Precipitation 0.00 in 0.00 in 0.00 in (2016)
Month to date precipitation 0.00 0.05  
Year to date precipitation 2.36 4.36  
Since 1 July precipitation 3.15  
Snow  
Snow 0.00 in - - ()
Month to date snowfall 0.0  
Since 1 June snowfall 0.0  
Since 1 July snowfall 0.0  
Snow Depth 0.00 in    
Sea Level Pressure  
Sea Level Pressure 29.85 in    
Wind  
Wind Speed 6 mph (NW)    
Max Wind Speed 16 mph    
Max Gust Speed 21 mph    
Visibility 10 miles    
Events      
T = Trace of Precipitation, MM = Missing Value Source: NWS Daily Summary

Daily Weather History Graph

Daily Weather History Graph

Search for Another Location

Airport or City:

Trip Planner

Search our weather history database for the weather conditions in past years. The results will help you decide how hot, cold, wet, or windy it might be!

Date:

Astronomy

Jun. 14, 2013 Rise Set
Actual Time 5:40 AM PDT 8:12 PM PDT
Civil Twilight 5:10 AM PDT 8:42 PM PDT
Nautical Twilight 4:33 AM PDT 9:19 PM PDT
Astronomical Twilight 3:52 AM PDT 10:00 PM PDT
Moon 11:09 AM PDT (6/14) No Moon Set
Length of Visible Light 15h 32m
Length of Day
14h 32m
Waxing Crescent, 31% of the Moon is Illuminated
Jun 14
Waxing Crescent
Jun 16
First Quarter
Jun 23
Full
Jun 29
Last Quarter
Jul 8
New

Hourly Weather History & Observations

Time (PDT) Temp. Dew Point Humidity Pressure Visibility Wind Dir Wind Speed Gust Speed Precip Events Conditions
12:54 AM 70.0 °F 37.0 °F 30% 29.92 in 10.0 mi NW 3.5 mph - N/A   Clear
1:54 AM 68.0 °F 39.0 °F 35% 29.91 in 10.0 mi Calm Calm - N/A   Clear
2:54 AM 64.9 °F 34.0 °F 32% 29.91 in 10.0 mi Calm Calm - N/A   Clear
3:54 AM 64.9 °F 39.9 °F 40% 29.91 in 10.0 mi SE 4.6 mph - N/A   Clear
4:54 AM 64.0 °F 39.0 °F 40% 29.90 in 10.0 mi SE 3.5 mph - N/A   Clear
5:54 AM 64.9 °F 39.0 °F 39% 29.91 in 10.0 mi East 4.6 mph - N/A   Clear
6:54 AM 68.0 °F 37.9 °F 33% 29.92 in 10.0 mi ESE 3.5 mph - N/A   Clear
7:54 AM 70.0 °F 37.0 °F 30% 29.92 in 10.0 mi ESE 5.8 mph - N/A   Clear
8:54 AM 75.0 °F 37.0 °F 25% 29.92 in 10.0 mi East 4.6 mph - N/A   Clear
9:54 AM 80.1 °F 39.9 °F 24% 29.91 in 10.0 mi NNW 10.4 mph - N/A   Clear
10:54 AM 81.0 °F 39.9 °F 23% 29.89 in 10.0 mi WNW 13.8 mph 19.6 mph N/A   Clear
11:54 AM 82.9 °F 39.0 °F 21% 29.88 in 10.0 mi NW 12.7 mph - N/A   Clear
12:54 PM 84.0 °F 37.9 °F 19% 29.86 in 10.0 mi NW 11.5 mph - N/A   Clear
1:54 PM 86.0 °F 35.1 °F 16% 29.84 in 10.0 mi WNW 11.5 mph 18.4 mph N/A   Clear
2:54 PM 87.1 °F 37.0 °F 17% 29.82 in 10.0 mi West 12.7 mph - N/A   Clear
3:54 PM 88.0 °F 37.0 °F 16% 29.80 in 10.0 mi WNW 9.2 mph - N/A   Clear
4:54 PM 88.0 °F 36.0 °F 16% 29.78 in 10.0 mi WNW 3.5 mph - N/A   Clear
5:54 PM 88.0 °F 37.0 °F 16% 29.77 in 10.0 mi West 10.4 mph - N/A   Clear
6:54 PM 87.1 °F 37.0 °F 17% 29.76 in 10.0 mi WNW 5.8 mph - N/A   Clear
7:54 PM 86.0 °F 36.0 °F 17% 29.77 in 10.0 mi West 5.8 mph - N/A   Clear
8:54 PM 82.9 °F 37.0 °F 19% 29.78 in 10.0 mi Calm Calm - N/A   Clear
9:54 PM 79.0 °F 37.0 °F 22% 29.79 in 10.0 mi North 4.6 mph - N/A   Clear
10:54 PM 77.0 °F 39.0 °F 25% 29.80 in 10.0 mi North 3.5 mph - N/A   Clear
11:54 PM 73.9 °F 37.9 °F 27% 29.80 in 10.0 mi ENE 3.5 mph - N/A   Clear